Location: Chmeln�
(49.6483°N, 14.9871°E)
Time: 06:28:32
(UTC+00:00)

SPOT 3 Rocket - Pass Details

Date: 18 September 2020
Orbit: 780 x 794 km, 98.7° (Epoch: 27 October)

Event Time Altitude Azimuth Distance (km) Brightness Sun altitude
Exits shadow 18:22:57 18° 121° (ESE) 1,845 4.9 -13.0°
Maximum altitude 18:26:12 36° 64° (ENE) 1,215 4.2 -13.5°
Drops below altitude 10° 18:30:54 10° 359° (N) 2,347 6.3 -14.3°
Sets 18:33:22 0° 351° (N) 3,280 7.2 -14.6°
